Showing default

LEMUR 2 THERMORAPTOR, 63354

Orbit data source: Space-Track

LEMUR 2 THERMORAPTOR, 63354 is a payload satellite owned by OroraTech (US) in SSO that was launched on Wed, 26 Mar 2025 UTC via an ELECTRON launch vehicle from the Rocket Lab Launch Complex (RLLC). Payload-class satellites include a variety of spacecraft equipped with specific instruments for various scientific and technological missions. These include communications satellites like Starlink; space stations such as the ISS; scientific satellites like the Hubble; Earth observation satellites from companies like Planet Labs, Umbra, and HawkEye 360; GPS; miniature CubeSats for education and research; and military/defense satellites.

Loading next visibility...
Identifier
63354, 2025-061D
Orbit
SSO
Last TLE update
15 hours ago
Origin
Manufacturer
Spire/Glasgow
Mission
Operational Commercial Imaging
Bus & Motor
CUBESAT 6U, Unknown motor
Mass
~15 kg wet, ~15 kg dry
Launch date (UTC)
2025-03-26 (3 months ago)
Launch vehicle
ELECTRON
Launch site
Rocket Lab Launch Complex (RLLC)
Object type
Payload
Rocket body
Debris
Shape & HBR
Box + 2 Pan, 0.4 m
Radar Cross Section
0.065 m², Medium (>0.1 m² and < 1m²)

Expand to show TLE details & history

TLE from 15 hours ago
0 LEMUR 2 THERMORAPTOR
1 63354U 25061D   25183.50080992  .00002713  00000-0  16928-3 0  9999
2 63354  97.5277 158.4416 0021377  24.2018 336.0211 15.10169736 14769
Epoch: 2025-07-02T12:01Z
TLE epoch observation values (Epoch: 2025-07-02T12:01:09.977Z)
Latitude
0.00002°
Longitude
57.36901°
Altitude
525.254 km
Speed
7.608 km/s
True Right ascension
10h 33m 45s
True Declination
0° 00' 00"
Sunlit
Object was in daylight at epoch
Visualization orbit readout
Latitude
23.99852°
Longitude
-118.66268°
Altitude
548.917 km
Speed
7.584 km/s
Apparent Right ascension
00h 31m 21s
Apparent Declination
-7° 23' 09"
Sunlit
Object is in daylight
Visualization observer readout
Local Sidereal Time
14:46:11
Azimuth
51.952° ENE
Elevation
-45.661°
Doppler factor
1
Orbital elements
Apogee altitude
547.439 km
Perigee altitude
517.893 km
Semi-major axis
6,910.803 km
Eccentricity
0.00214
Inclination
97.5277°
RAAN
158.4416°
Arg. of periapsis
24.2018°
True anomaly
Unknown
Mean anomaly
336.0211°
Eccentric anomaly
Unknown
Mean motion
3.7779 °/min
Orbital period
95.29 mins
BSTAR
0.00016928
Loading maneuver chart data...
Loading SW <> Apogee altitude chart data...
Loading historical data...
Loading historical data...
Loading historical data...
Loading historical data...
Loading historical data...
Loading historical data...
Loading historical data...

LEMUR 2 THERMORAPTOR Visibility forecast

Observer location: undefined°, undefined°

Span
Click to sort rows by Start time (UTC) header in descending order
Start Az.
Max El. time (UTC)
Max El. Az.
Max El.
End time (UTC)
End Az.
6 mins2025-07-03 10:51:04.645Z28.886° NE2025-07-03 10:54:04.645Z99.333° ESE35.573°2025-07-03 10:57:04.645Z169.394° S
4 mins2025-07-03 23:09:04.645Z231.424° WSW2025-07-03 23:10:04.645Z253.366° W21.374°2025-07-03 23:13:04.645Z314.022° NW
|